EW4818 Weather Reports


time (UTC)temp
C
wind
direction
speed
KPH
gust
KPH
rain 1hr
cm
rain 24hr
cm
rain mn
cm
humidity
%
barometer
mb
20260902014518 16 0.0 0.0 0.00 0.46 0.46 95 1018.6
20260902013517 16 0.0 0.0 0.00 0.46 0.46 95 1018.6
20260902012517 16 0.0 0.0 0.00 0.46 0.46 95 1018.7
20260902011517 16 0.0 0.0 0.00 0.46 0.46 95 1018.6
20260902010517 16 0.0 0.0 0.00 0.46 0.46 95 1018.5
20260902005516 16 0.0 0.0 0.00 0.46 0.46 94 1018.5
20260902004517 16 0.0 0.0 0.00 0.46 0.46 94 1018.4
20260902003516 16 0.0 0.0 0.00 0.46 0.46 94 1018.2
20260902002515 17 0.0 0.0 0.00 0.46 0.46 94 1018.0
20260902001519 17 0.0 0.0 0.00 0.46 0.46 94 1018.1
20260902000516 17 0.0 0.0 0.00 0.46 0.46 94 1018.1
20260901235537 17 0.0 0.0 0.00 0.46 0.46 94 1018.1
20260901234517 17 0.0 0.0 0.00 0.46 0.46 93 1018.1
20260901233516 17 0.0 0.0 0.00 0.46 0.46 93 1017.9
20260901232517 17 0.0 0.0 0.00 0.46 0.46 93 1018.0
20260901231516 17 0.0 0.0 0.00 0.46 0.46 93 1018.0
20260901230517 17 0.0 0.0 0.00 0.46 0.46 93 1017.9
20260901225516 18 0.0 0.0 0.00 0.46 0.46 93 1017.9
20260901224516 18 0.0 0.0 0.00 0.46 0.46 92 1017.9
20260901223537 18 0.0 1.6 0.00 0.46 0.46 92 1018.0
20260901222516 18 0.0 1.6 0.00 0.46 0.46 92 1018.1
20260901221515 18 190 0.0 4.8 0.00 0.46 0.46 92 1017.8
20260901220517 18 190 0.0 4.8 0.00 0.46 0.46 92 1017.7
20260901215535 18 190 0.0 3.2 0.00 0.46 0.46 93 1017.8
20260901214539 18 0.0 0.0 0.00 0.46 0.46 92 1017.8
20260901213516 18 0.0 0.0 0.00 0.46 0.46 93 1017.7
20260901212515 18 0.0 1.6 0.00 0.46 0.46 93 1017.6
20260901211536 18 190 0.0 3.2 0.00 0.46 0.46 93 1017.7
20260901210517 18 190 0.0 1.6 0.00 0.46 0.46 93 1017.6
20260901205516 18 0.0 1.6 0.00 0.46 0.46 93 1017.5
20260901204517 18 0.0 1.6 0.00 0.46 0.46 93 1017.4
20260901203517 18 0.0 0.0 0.03 0.46 0.46 94 1017.3
20260901202516 18 0.0 1.6 0.03 0.46 0.46 94 1017.4
20260901201517 18 190 0.0 3.2 0.03 0.46 0.46 94 1017.5
20260901200518 18 190 0.0 3.2 0.03 0.46 0.46 94 1017.4
20260901195517 18 190 0.0 3.2 0.03 0.46 0.46 95 1017.4
20260901194536 18 190 0.0 3.2 0.03 0.46 0.46 95 1017.4
20260901193515 18 190 0.0 3.2 0.00 0.43 0.43 95 1017.4
20260901192517 18 190 0.0 3.2 0.00 0.43 0.43 95 1017.3
20260901191516 18 190 0.0 4.8 0.00 0.43 0.43 95 1017.4
20260901190517 19 190 0.0 4.8 0.00 0.43 0.43 95 1017.4
20260901185536 19 190 1.6 4.8 0.03 0.43 0.43 96 1017.3
20260901184537 19 190 0.0 3.2 0.03 0.43 0.43 96 1017.2
20260901183516 19 190 0.0 4.8 0.03 0.43 0.43 96 1017.2
20260901182517 19 190 0.0 3.2 0.03 0.43 0.43 96 1017.0
20260901181516 18 0.0 0.0 0.03 0.43 0.43 96 1017.0
20260901180517 18 0.0 1.6 0.03 0.43 0.43 96 1017.0
20260901175536 18 0.0 1.6 0.00 0.41 0.41 96 1017.0
20260901174515 18 0.0 1.6 0.00 0.41 0.41 95 1017.0
20260901173517 18 0.0 0.0 0.00 0.41 0.41 96 1017.1
20260901172556 18 0.0 0.0 0.00 0.41 0.41 95 1017.1
20260901171557 18 0.0 0.0 0.00 0.41 0.41 96 1017.2
20260901170516 18 0.0 0.0 0.00 0.41 0.41 96 1017.3
20260901165537 18 0.0 1.6 0.00 0.41 0.41 96 1017.2
20260901164538 18 190 0.0 1.6 0.00 0.41 0.41 95 1017.3
20260901163515 18 0.0 1.6 0.00 0.41 0.41 96 1017.2
20260901162516 18 190 0.0 3.2 0.00 0.41 0.41 96 1017.2
20260901161536 18 0.0 3.2 0.00 0.41 0.41 96 1017.1
20260901160517 18 190 0.0 3.2 0.00 0.41 0.41 96 1017.2
20260901155518 18 190 0.0 4.8 0.00 0.41 0.41 95 1017.3
20260901154519 18 190 0.0 4.8 0.00 0.41 0.41 96 1017.2
20260901153516 18 0.0 1.6 0.00 0.41 0.41 96 1017.2
20260901152538 18 0.0 0.0 0.00 0.41 0.41 96 1017.1
20260901151518 18 0.0 1.6 0.03 0.41 0.41 96 1017.0
20260901150516 17 0.0 0.0 0.03 0.41 0.41 96 1016.9
20260901145521 17 0.0 0.0 0.03 0.41 0.41 96 1016.8
20260901144518 17 0.0 0.0 0.05 0.41 0.41 95 1016.8
20260901143540 17 0.0 0.0 0.10 0.41 0.41 95 1016.9
20260901142539 17 0.0 1.6 0.15 0.41 0.41 95 1016.9
20260901141540 17 0.0 1.6 0.18 0.38 0.38 95 1017.0
20260901140537 17 0.0 1.6 0.28 0.38 0.38 95 1017.2
20260901135538 17 190 0.0 3.2 0.36 0.38 0.38 94 1017.2
20260901134539 17 190 1.6 3.2 0.36 0.36 0.36 94 1017.3
20260901133518 17 190 0.0 3.2 0.30 0.30 0.30 94 1017.4
20260901132519 17 190 0.0 3.2 0.25 0.25 0.25 93 1017.4
20260901131518 17 0.0 3.2 0.20 0.20 0.20 93 1017.4
20260901130519 17 190 0.0 3.2 0.10 0.10 0.10 92 1017.6
20260901125517 18 190 1.6 4.8 0.03 0.03 0.03 92 1017.5
20260901124539 18 190 3.2 4.8 0.00 0.00 0.00 92 1017.3
20260901123518 18 190 1.6 4.8 0.00 0.00 0.00 92 1017.3
20260901122519 18 0.0 1.6 0.00 0.00 0.00 92 1017.4
20260901121517 18 190 0.0 3.2 0.00 0.00 0.00 92 1017.3
20260901120539 18 190 0.0 3.2 0.00 0.00 0.00 91 1017.4
20260901115519 18 190 1.6 3.2 0.00 0.00 0.00 91 1017.3
20260901114518 19 190 1.6 3.2 0.00 0.00 0.00 91 1017.3
20260901113520 19 190 0.0 3.2 0.00 0.00 0.00 91 1017.2
20260901112518 19 0.0 3.2 0.00 0.00 0.00 91 1017.2
20260901111518 19 0.0 3.2 0.00 0.00 0.00 91 1017.1
20260901110519 19 0.0 0.0 0.00 0.00 0.00 91 1017.1
20260901105538 19 0.0 3.2 0.00 0.00 0.00 91 1016.8
20260901104519 18 190 0.0 3.2 0.00 0.00 0.00 91 1016.7
20260901103518 18 190 0.0 3.2 0.00 0.00 0.00 91 1016.4
20260901102519 18 190 0.0 1.6 0.00 0.00 0.00 91 1016.4
20260901101518 18 0.0 0.0 0.00 0.00 0.00 91 1016.4
20260901100521 18 0.0 0.0 0.00 0.00 0.00 91 1016.3
20260901095518 18 0.0 0.0 0.00 0.00 0.00 91 1016.3
20260901094517 18 0.0 0.0 0.00 0.00 0.00 91 1016.3
20260901093518 18 0.0 0.0 0.00 0.00 0.00 90 1016.3
20260901092519 18 0.0 0.0 0.00 0.00 0.00 90 1016.3
20260901091518 18 0.0 0.0 0.00 0.00 0.00 90 1016.3
20260901090517 18 0.0 0.0 0.00 0.00 0.00 90 1016.3
20260901085519 18 0.0 0.0 0.00 0.00 0.00 89 1016.3
20260901084520 19 0.0 3.2 0.00 0.00 0.00 89 1016.4
20260901083519 19 190 0.0 8.0 0.00 0.00 0.00 88 1016.5
20260901082520 19 190 1.6 8.0 0.00 0.00 0.00 87 1016.5
20260901081519 20 190 1.6 6.4 0.00 0.00 0.00 86 1016.5
20260901080538 20 190 1.6 11.3 0.00 0.00 0.00 86 1016.6
20260901075519 20 184 1.6 8.0 0.00 0.00 0.00 85 1016.7
20260901074518 20 184 3.2 8.0 0.00 0.00 0.00 85 1016.8
20260901073540 20 183 1.6 9.7 0.00 0.00 0.00 84 1016.9
20260901072539 20 184 1.6 4.8 0.00 0.00 0.00 83 1016.9
20260901071538 20 184 0.0 11.3 0.00 0.00 0.00 83 1017.0
20260901070519 20 184 1.6 4.8 0.00 0.00 0.00 82 1017.0
20260901065540 20 184 0.0 6.4 0.00 0.00 0.00 81 1017.0
20260901064519 20 184 1.6 6.4 0.00 0.00 0.00 81 1017.0
20260901063518 20 184 1.6 6.4 0.00 0.00 0.00 80 1017.1
20260901062539 20 184 0.0 4.8 0.00 0.00 0.00 80 1017.1
20260901061518 20 184 0.0 8.0 0.00 0.00 0.00 80 1017.1
20260901060517 20 183 1.6 9.7 0.00 0.00 0.00 80 1017.2
20260901055518 19 180 0.0 11.3 0.00 0.00 0.00 81 1017.3
20260901054518 19 180 1.6 11.3 0.00 0.00 0.00 82 1017.2
20260901053519 18 190 0.0 8.0 0.00 0.00 0.00 85 1017.2
20260901052538 18 0.0 1.6 0.00 0.00 0.00 87 1017.2
20260901051517 19 0.0 0.0 0.00 0.00 0.00 87 1017.2
20260901050518 19 0.0 0.0 0.00 0.00 0.00 88 1017.3
20260901045517 19 190 0.0 1.6 0.00 0.00 0.00 88 1017.2
20260901044516 19 190 0.0 1.6 0.00 0.00 0.00 88 1017.2
20260901043538 19 190 0.0 3.2 0.00 0.00 0.00 88 1017.4
20260901042517 19 190 0.0 4.8 0.00 0.00 0.00 88 1017.3
20260901041516 19 190 1.6 6.4 0.00 0.00 0.00 88 1017.4
20260901040517 19 190 1.6 6.4 0.00 0.00 0.00 89 1017.4
20260901035516 19 191 0.0 4.8 0.00 0.00 0.00 88 1017.4
20260901034518 20 191 0.0 6.4 0.00 0.00 0.00 88 1017.3
20260901033518 20 194 1.6 8.0 0.00 0.00 0.00 88 1017.4
20260901032516 20 176 1.6 12.9 0.00 0.00 0.00 88 1017.4
20260901031519 20 199 1.6 6.4 0.00 0.00 0.00 88 1017.4
20260901030518 20 200 1.6 8.0 0.00 0.00 0.00 88 1017.4
20260901025517 19 201 1.6 9.7 0.00 0.00 0.00 88 1017.3
20260901024516 19 239 1.6 9.7 0.00 0.00 0.00 88 1017.4
20260901023518 19 245 1.6 9.7 0.00 0.00 0.00 88 1017.5
20260901022517 19 182 1.6 4.8 0.00 0.00 0.00 88 1017.4
20260901021516 19 182 0.0 3.2 0.00 0.00 0.00 88 1017.4
20260901020518 19 182 0.0 3.2 0.00 0.00 0.00 88 1017.4
20260901015517 19 182 0.0 8.0 0.00 0.00 0.00 88 1017.4